This is the latest recevied weather packets stored in our database for station/object KB2SKP. If no packets are shown the sender has not sent any weather packets the latest 10 day(s).
| Time | Temp. | Humidity | Pressure | Rain* | Wind** | Luminosity | Snow |
|---|---|---|---|---|---|---|---|
| 1777595266 | 16.67° C | 45% | 1007 hPa | 0 mm | - | 0 W/m² | - |
| 1777594963 | 16.67° C | 45% | 1006.9 hPa | 0 mm | - | 0 W/m² | - |
| 1777594659 | 16.67° C | 44% | 1006.9 hPa | 0 mm | - | 0 W/m² | - |
| 1777594356 | 17.22° C | 43% | 1006.7 hPa | 0 mm | - | 0 W/m² | - |
| 1777594052 | 17.22° C | 42% | 1006.4 hPa | 0 mm | - | 0 W/m² | - |
| 1777593748 | 17.22° C | 41% | 1006.5 hPa | 0 mm | - | 0 W/m² | - |
| 1777593444 | 17.22° C | 41% | 1006.3 hPa | 0 mm | - | 1 W/m² | - |
| 1777593142 | 17.78° C | 41% | 1006.1 hPa | 0 mm | - | 2 W/m² | - |
| 1777592842 | 17.78° C | 41% | 1005.9 hPa | 0 mm | - | 2 W/m² | - |
| 1777592539 | 17.78° C | 40% | 1006 hPa | 0 mm | - | 3 W/m² | - |
| 1777592234 | 17.78° C | 40% | 1006 hPa | 0 mm | - | 4 W/m² | - |
| 1777591931 | 17.78° C | 40% | 1005.8 hPa | 0 mm | - | 6 W/m² | - |
| 1777591627 | 17.78° C | 39% | 1005.4 hPa | 0 mm | - | 7 W/m² | - |
| 1777591323 | 18.33° C | 38% | 1005.6 hPa | 0 mm | - | 7 W/m² | - |
| 1777591019 | 18.33° C | 39% | 1005.4 hPa | 0 mm | - | 8 W/m² | - |
| 1777590714 | 18.33° C | 40% | 1005.3 hPa | 0 mm | - | 10 W/m² | - |
| 1777590410 | 18.89° C | 39% | 1005.3 hPa | 0 mm | - | 14 W/m² | - |
| 1777590108 | 18.89° C | 38% | 1005.3 hPa | 0 mm | - | 20 W/m² | - |
| 1777589804 | 18.89° C | 40% | 1005.1 hPa | 0 mm | - | 20 W/m² | - |
| 1777589504 | 19.44° C | 40% | 1005.1 hPa | 0 mm | - | 21 W/m² | - |
| 1777589198 | 19.44° C | 41% | 1004.8 hPa | 0 mm | - | 21 W/m² | - |
| 1777588895 | 19.44° C | 41% | 1004.9 hPa | 0 mm | - | 23 W/m² | - |
| 1777588591 | 19.44° C | 40% | 1005 hPa | 0 mm | - | 30 W/m² | - |
| 1777588286 | 19.44° C | 41% | 1005 hPa | 0 mm | - | 28 W/m² | - |
| 1777587982 | 19.44° C | 42% | 1004.9 hPa | 0 mm | - | 31 W/m² | - |
* Rain latest hour (hover to see other rain measurements)
** Current wind speed in m/s (hover to see current wind gust speed)